Regional Weather Roundup
Issued by NWS

Home | Current Version | Previous Version | Graphics & Text | Print | Product List | Glossary On
Versions: 1 2 3 4 5 6 7 8 9 10 11 12 13 14 15 16 17 18 19 20 21 22 23 24 25 26 27 28 29 30 31 32 33 34 35 36 37 38 39 40 41 42 43 44 45 46 47 48 49 50
000
ASUS43 KMPX 240410
RWRMN
WEATHER ROUNDUP FOR MINNESOTA
NATIONAL WEATHER SERVICE TWIN CITIES/CHANHASSEN MN
1100 PM CDT SUN JUL 23 2017


NOTE: "FAIR" INDICATES FEW OR NO CLOUDS BELOW 12,000 FEET WITH NO
SIGNIFICANT WEATHER AND/OR OBSTRUCTIONS TO VISIBILITY. N/A MEANS
CURRENT SKY AND/OR WEATHER CONDITIONS ARE NOT AVAILABLE.

MNZ060>063-068>070-240500-
   Twin Cities Metro

CITY           SKY/WX    TMP DP  RH WIND       PRES   REMARKS
TWIN CITIES    CLEAR     67  57  70 E8        30.01R
ST PAUL        CLEAR     65  59  81 NE5       30.02R
CRYSTAL        CLEAR     64  55  72 N3        30.01R
BLAINE         CLEAR     64  57  77 CALM      30.02R
LAKEVILLE      CLEAR     59  59 100 CALM      30.02R
EDEN PRAIRIE   CLEAR     68  58  70 NE7       30.00R
SOUTH ST PAUL  CLEAR     66  57  74 E3        30.01S
LAKE ELMO      FAIR      63  57  82 NE6       30.03R
$$
MNZ001>005-007-008-013>017-022>024-027-028-240500-
   Northwest Minnesota

CITY           SKY/WX    TMP DP  RH WIND       PRES   REMARKS
BEMIDJI        CLEAR     63  57  82 S3        30.02S
HALLOCK        CLEAR     64  63  94 CALM      29.97S
ROSEAU         CLEAR     63  57  82 SE5       29.99S
WARROAD        CLEAR     63  57  82 CALM      30.00S
THIEF RVR FALL CLEAR     63  57  81 SE6       30.01S
CROOKSTON      CLEAR     64  61  88 S5        30.00S
FOSSTON        CLEAR     61  55  82 SE3       30.02S
DETROIT LAKES  CLEAR     66  57  72 SE3       30.04S
MOORHEAD       CLEAR     68  63  83 CALM      30.01S
PARK RAPIDS    CLEAR     64  58  80 E3        30.03R
MAHNOMEN       FAIR      63  59  87 SE3       30.02S
$$
MNZ006-009>011-018-025>026-240500-
   North Central Minnesota

CITY           SKY/WX    TMP DP  RH WIND       PRES   REMARKS
BAUDETTE       CLEAR     63  59  87 SW3       30.00R
FLAG ISLAND    CLEAR     70  63  78 CALM      29.98R HAZE
INTL FALLS     CLEAR     54  51  90 CALM      30.00S
WASKISH        CLEAR     57  55  94 CALM      30.02R
BIG FORK       CLEAR     55  55 100 CALM      30.03R
LONGVILLE      CLEAR     57  55  94 CALM      30.04R
GRAND RAPIDS   CLEAR     59  58  96 S6        30.06R
CRANE LAKE     CLEAR     54  52  94 CALM      30.04R
ORR            CLEAR     59  55  88 SE3       30.01R
COOK           CLEAR     61  57  88 S6        30.04S
WALKER         FAIR      56  55  95 CALM      30.03S
$$
MNZ012-019>021-037-240500-
   Northeast Minnesota

CITY           SKY/WX    TMP DP  RH WIND       PRES   REMARKS
DULUTH         FOG       54  52  93 SE5       30.04F VSB 1/2
ELY            CLEAR     55  54  94 CALM      30.04F
HIBBING        CLEAR     59  58  96 S5        30.04S
EVELETH        PTCLDY    58  54  88 CALM      30.06S
DULUTH HARBOR  MOCLDY    59  57  94 E7        30.05S
TWO HARBORS    CLEAR     54  48  82 CALM      30.03S
GRAND MARAIS     N/A     53  51  93 CALM      30.02S
G MARAIS ARPRT CLEAR     50  45  81 CALM      30.06S
$$
MNZ029>031-032-039>041-046>048-054>057-064-240500-
   West Central Minnesota

CITY           SKY/WX    TMP DP  RH WIND       PRES   REMARKS
FERGUS FALLS   CLEAR     66  61  82 CALM      30.01R
WHEATON        CLEAR     63  59  88 CALM      30.03S
MORRIS         CLEAR     64  61  88 NW3       30.01S
ALEXANDRIA     CLEAR     66  60  81 E6        30.04R
ELBOW LAKE     FAIR      64  60  88 CALM      30.02R
WADENA         CLEAR     59  57  94 CALM      30.03S
GLENWOOD       CLEAR     63  61  94 E5        30.03S
APPLETON       CLEAR     64  59  82 CALM      30.01S
BENSON         CLEAR     63  61  94 CALM      30.03R
ORTONVILLE     CLEAR     64  57  77 CALM      30.02R
MADISON        CLEAR     64  61  88 CALM      30.02S
WILLMAR        FAIR      66  61  82 E7        30.03S
$$
MNZ033>034-036-042>043-049>051-058-059-240500-
   Central Minnesota

CITY           SKY/WX    TMP DP  RH WIND       PRES   REMARKS
ST CLOUD       CLEAR     61  60  97 CALM      30.03R
SAUK CENTRE    FAIR      63  60  90 E3        30.03S
PAYNESVILLE    CLEAR     66  60  81 E5        30.03S
AITKIN         CLEAR     57  55  94 CALM      30.04R
PINE RIVER     CLEAR     57  57 100 CALM      30.07S
BRAINERD       CLEAR     61  58  90 SE3       30.04R
STAPLES        CLEAR     63  57  82 CALM      30.03R
LONG PRAIRIE   FAIR      61  59  94 NE5       30.04R
LITTLE FALLS   CLEAR     61  57  88 CALM      30.04S
LITCHFIELD     CLEAR     66  61  82 E5        30.03S
BUFFALO        CLEAR     64  57  80 NE3       30.04R
MAPLE LAKE     CLEAR     62  59  91 CALM      30.04R
HUTCHINSON     CLEAR     64  61  88 NE3       30.03R
$$
MNZ037-044-045-052-053-240500-
   East Central Minnesota

CITY           SKY/WX    TMP DP  RH WIND       PRES   REMARKS
PRINCETON      CLEAR     59  57  94 CALM      30.04R
MORA           CLEAR     59  54  82 CALM      30.05S
CAMBRIDGE      CLEAR     61  54  77 CALM      30.02R
RUSH CITY      MOCLDY    58  56  93 CALM      30.03S
MOOSE LAKE     PTCLDY    55  54  94 CALM      30.02S FOG
HINCKLEY       FAIR      57  57 100 CALM      30.04R
CLOQUET        PTCLDY    55  54  94 CALM      30.05R
MCGREGOR       CLEAR     59  55  88 CALM      30.05S
$$
MNZ071>073-080-081-089-090-097-098-240500-
   Southwest Minnesota

CITY           SKY/WX    TMP DP  RH WIND       PRES   REMARKS
MONTEVIDEO     CLOUDY    66  57  72 N3        30.02R
GRANITE FALLS  CLOUDY    66  63  89 W5        30.03R
CANBY          CLEAR     61  58  90 CALM      30.03S
REDWOOD FALLS  PTCLDY    68  60  75 CALM      30.00R
OLIVIA         CLEAR     64  61  88 NE3       30.01S
PIPESTONE      CLEAR     64  57  77 CALM      30.03S
WINDOM         CLEAR     63  59  88 NW3       30.02S
WORTHINGTON    CLEAR     60  58  92 CALM      30.04R
JACKSON        CLEAR     61  57  88 CALM      30.03R
SLAYTON        HVY RAIN  62  58  88 CALM      30.04S
$$
MNZ065>067-074>077-082>085-091>093-240500-
   South Central Minnesota

CITY           SKY/WX    TMP DP  RH WIND       PRES   REMARKS
MANKATO        CLEAR     66  59  78 E6        30.01R
NEW ULM        CLEAR     66  59  77 NE5       30.01R
ST JAMES       CLOUDY    66  64  94 CALM      30.01S
FAIRMONT       CLOUDY    65  62  90 NW5       30.01R
GLENCOE        CLEAR     65  62  88 CALM      30.01R
FARIBAULT      CLEAR     63  59  88 CALM      30.02R
OWATONNA       CLEAR     63  57  82 NE7       30.01S
WASECA         CLEAR     63  55  77 NE5       30.02R
ALBERT LEA     CLEAR     64  57  77 NE6       30.00S
$$
MNZ078>079-086>088-094>096-240500-
   Southeast Minnesota

CITY           SKY/WX    TMP DP  RH WIND       PRES   REMARKS
ROCHESTER      MOCLDY    63  58  83 N9        30.00R
RED WING       CLOUDY    66  55  68 NE3       29.99S
STANTON        CLEAR     62  58  88 CALM      30.00R
DODGE CENTER   PTCLDY    61  57  88 N5        30.01R
WINONA         PTCLDY    64  59  82 N3        29.98R
AUSTIN         CLEAR     63  57  82 N3        30.00R
PRESTON        PTCLDY    60  56  88 N7        29.99S
$$
ABBREVIATIONS USED IN REMARKS
   TC - TEMPERATURES IN CELSIUS
  WCI - WIND CHILL INDEX
   HX - HEAT INDEX
  VSB - VISIBILITY
$$



USA.gov is the U.S. government's official web portal to all federal, state and local government web resources and services.